Location: �clusier
(49.9361°N, 2.7869°E)
Time: 07:23:02
(UTC+00:00)

Okean 1-7 Rocket - Pass Details

Date: 16 June 2021
Orbit: 616 x 649 km, 82.5° (Epoch: 31 July)

Event Time Altitude Azimuth Distance (km) Brightness Sun altitude
Exits shadow 23:06:12 28° 151° (SSE) 1,208 4.5 -16.0°
Maximum altitude 23:08:13 47° 93° (E) 846 4.1 -16.1°
Drops below altitude 10° 23:12:30 10° 21° (NNE) 2,018 7.1 -16.2°
Sets 23:14:47 0° 15° (NNE) 2,925 8.3 -16.3°
